Location: Canazei
(46.4667°N, 11.7667°E)
Time: 15:17:24
(UTC+00:00)

Envisat - Pass Details

Date: 27 September 2021
Orbit: 764 x 766 km, 98.2° (Epoch: 18 October)

Event Time Altitude Azimuth Distance (km) Brightness Sun altitude
Rises 04:21:40 0° 15° (NNE) 3,242 6.5 -8.5°
Reaches altitude 10° 04:24:00 10° 17° (NNE) 2,312 5.8 -8.1°
Maximum altitude 04:29:05 75° 103° (ESE) 796 3.3 -7.2°
Drops below altitude 10° 04:34:09 10° 188° (S) 2,294 5.4 -6.4°
Sets 04:36:27 0° 191° (S) 3,215 6.1 -6.0°
